Location: Greenwich
(51.4790°N, 0.0090°E)
Time: 21:00:22
(UTC+01:00)

SR - All Passes

Search period start: 17 June 2025 00:00
Search period end: 27 June 2025 00:00
Orbit: 570 x 855 km, 66.7° (Epoch: 17 June)

Date Brightness Start Highest point End Pass type
(mag) Time Alt. Az. Time Alt. Az. Time Alt. Az.
17 Jun - 01:00:43 10° NNW 01:05:17 28° NNE 01:09:33 10° E visible
17 Jun - 02:42:27 10° NW 02:47:39 80° SW 02:52:22 10° SSE visible
17 Jun - 04:25:58 10° WNW 04:28:25 14° WSW 04:30:48 10° SW daylight
17 Jun - 17:14:39 10° SSE 17:19:10 24° ESE 17:23:35 10° ENE daylight
17 Jun - 18:54:40 10° SW 19:00:28 79° NW 19:06:03 10° NE daylight
17 Jun - 20:38:17 10° W 20:43:02 26° NNW 20:47:36 10° NNE daylight
17 Jun - 22:23:16 10° NW 22:26:37 16° N 22:29:50 10° NNE visible
18 Jun - 00:06:22 10° NNW 00:10:22 21° NNE 00:14:09 10° ENE visible
18 Jun - 01:48:05 10° NW 01:53:15 57° NE 01:57:58 10° SE visible
18 Jun - 03:30:23 10° NW 03:34:39 28° WSW 03:38:38 10° S visible
18 Jun - 16:23:07 10° SE 16:25:22 12° ESE 16:27:36 10° E daylight
18 Jun - 18:00:28 10° SSW 18:06:09 61° ESE 18:11:39 10° NE daylight
18 Jun - 19:42:55 10° WSW 19:48:14 38° NW 19:53:20 10° NNE daylight
18 Jun - 21:27:45 10° WNW 21:31:29 18° NNW 21:35:06 10° NNE daylight
18 Jun - 23:11:49 10° NNW 23:15:18 17° NNE 23:18:38 10° NE visible
19 Jun - 00:53:48 10° NNW 00:58:38 35° NE 01:03:04 10° ESE visible
19 Jun - 02:35:38 10° NW 02:40:39 55° WSW 02:45:13 10° SSE visible
19 Jun - 17:06:55 10° S 17:12:02 34° ESE 17:17:01 10° NE daylight
19 Jun - 18:47:55 10° SW 18:53:38 60° NW 18:59:06 10° NE daylight
19 Jun - 20:32:05 10° WNW 20:36:28 22° NNW 20:40:40 10° NNE daylight
19 Jun - 22:16:55 10° NW 22:20:10 16° N 22:23:18 10° NE visible
19 Jun - 23:59:30 10° NNW 00:03:48 24° NNE 00:07:50 10° E visible
20 Jun - 01:41:11 10° NW 01:46:24 79° NE 01:51:07 10° SE visible
20 Jun - 03:24:00 10° WNW 03:27:26 19° WSW 03:30:41 10° SSW visible
20 Jun - 16:14:19 10° SSE 16:18:07 18° ESE 16:21:51 10° ENE daylight
20 Jun - 17:53:25 10° SSW 17:59:12 83° SE 18:04:47 10° NE daylight
20 Jun - 19:36:34 10° W 19:41:34 30° NNW 19:46:21 10° NNE daylight
20 Jun - 21:21:34 10° NW 21:25:01 16° N 21:28:20 10° NNE daylight
20 Jun - 23:05:05 10° NNW 23:08:48 19° NNE 23:12:20 10° ENE visible
21 Jun - 00:46:52 10° NNW 00:51:54 45° NE 00:56:29 10° ESE visible
21 Jun - 02:28:55 10° NW 02:33:34 37° WSW 02:37:50 10° S visible
21 Jun - 16:59:28 10° S 17:04:58 47° ESE 17:10:18 10° NE daylight
21 Jun - 18:41:20 10° WSW 18:46:51 45° NW 18:52:07 10° NNE daylight
21 Jun - 20:25:56 10° WNW 20:29:55 19° NNW 20:33:44 10° NNE daylight
21 Jun - 22:10:24 10° NNW 22:13:42 16° N 22:16:52 10° NE visible
21 Jun - 23:52:35 10° NNW 23:57:10 29° NNE 00:01:25 10° E visible
22 Jun - 01:34:20 10° NW 01:39:27 73° SW 01:44:06 10° SSE visible
22 Jun - 03:18:13 10° W 03:20:09 12° WSW 03:22:01 10° SW visible
22 Jun - 16:06:16 10° SSE 16:10:57 26° ESE 16:15:29 10° ENE daylight
22 Jun - 17:46:33 10° SW 17:52:19 74° NW 17:57:50 10° NE daylight
22 Jun - 19:30:18 10° W 19:34:56 25° NNW 19:39:23 10° NNE daylight
22 Jun - 21:15:18 10° NW 21:18:33 16° N 21:21:41 10° NNE daylight
22 Jun - 22:58:15 10° NNW 23:02:16 21° NNE 23:06:03 10° ENE visible
23 Jun - 00:39:57 10° NW 00:45:05 62° NE 00:49:45 10° SE visible
23 Jun - 02:22:20 10° WNW 02:26:23 25° WSW 02:30:11 10° SSW visible
23 Jun - 15:14:24 10° SE 15:17:07 14° ESE 15:19:47 10° ENE daylight
23 Jun - 16:52:16 10° SSW 16:57:58 66° ESE 17:03:28 10° NE daylight
23 Jun - 18:34:53 10° WSW 18:40:07 36° NW 18:45:07 10° NNE daylight
23 Jun - 20:19:47 10° NW 20:23:24 17° NNW 20:26:53 10° NNE daylight
23 Jun - 22:03:44 10° NNW 22:07:13 17° NNE 22:10:32 10° NE visible
23 Jun - 23:45:39 10° NNW 23:50:28 37° NE 23:54:55 10° ESE visible
24 Jun - 01:27:31 10° NW 01:32:25 50° WSW 01:36:53 10° SSE visible
24 Jun - 15:58:37 10° S 16:03:49 36° ESE 16:08:52 10° NE daylight
24 Jun - 17:39:50 10° WSW 17:45:29 56° NW 17:50:52 10° NNE daylight
24 Jun - 19:24:07 10° WNW 19:28:21 21° NNW 19:32:25 10° NNE daylight
24 Jun - 21:08:53 10° NW 21:12:05 16° N 21:15:09 10° NE daylight
24 Jun - 22:51:21 10° NNW 22:55:40 25° NNE 22:59:42 10° E visible
25 Jun - 00:33:02 10° NW 00:38:11 86° NE 00:42:51 10° SE visible
25 Jun - 02:16:02 10° WNW 02:19:09 17° WSW 02:22:06 10° SW visible
25 Jun - 15:05:51 10° SSE 15:09:53 20° ESE 15:13:48 10° ENE daylight
25 Jun - 16:45:15 10° SW 16:51:02 89° SE 16:56:34 10° NE daylight
25 Jun - 18:28:33 10° W 18:33:27 29° NNW 18:38:08 10° NNE daylight
25 Jun - 20:13:35 10° NW 20:16:55 16° N 20:20:07 10° NNE daylight
25 Jun - 21:56:57 10° NNW 22:00:42 19° NNE 22:04:14 10° ENE daylight
25 Jun - 23:38:42 10° NNW 23:43:43 48° NE 23:48:17 10° ESE visible
26 Jun - 01:20:49 10° NW 01:25:17 34° WSW 01:29:26 10° S visible
26 Jun - 15:51:13 10° SSW 15:56:47 51° ESE 16:02:07 10° NE daylight
26 Jun - 17:33:17 10° WSW 17:38:42 43° NW 17:43:52 10° NNE daylight
26 Jun - 19:17:58 10° WNW 19:21:49 19° NNW 19:25:30 10° NNE daylight
26 Jun - 21:02:20 10° NNW 21:05:36 16° N 21:08:44 10° NE daylight
26 Jun - 22:44:25 10° NNW 22:49:01 30° NNE 22:53:16 10° E visible
